Time,TemperatureF,DewpointF,PressureIn,WindDirection,WindDirectionDegrees,WindSpeedMPH,WindSpeedGustMPH,Humidity,HourlyPrecipIn,Conditions,Clouds,dailyrainin,SolarRadiationWatts/m^2,SoftwareType,DateUTC
2013-01-13 00:00:00,71.2,65.8,29.72,SE,135,6.0,22.0,83,0.00,,---,0.14,0.00,VWS V14.00,2013-01-13 06:00:00,
2013-01-13 00:01:00,71.1,65.7,29.72,South,188,10.0,15.0,83,0.00,,---,0.00,0.00,VWS V14.00,2013-01-13 06:01:00,
2013-01-13 00:06:00,71.0,65.6,29.72,SE,146,10.0,16.0,83,0.00,,---,0.00,0.00,VWS V14.00,2013-01-13 06:06:00,
2013-01-13 00:11:00,71.0,65.6,29.72,SSW,200,3.0,17.0,83,0.00,,---,0.00,0.00,VWS V14.00,2013-01-13 06:11:00,
2013-01-13 00:16:00,70.9,65.5,29.71,South,191,14.0,17.0,83,0.00,,---,0.00,0.00,VWS V14.00,2013-01-13 06:16:00,
2013-01-13 00:21:00,71.0,65.6,29.71,SW,221,13.0,17.0,83,0.00,,---,0.00,0.00,VWS V14.00,2013-01-13 06:21:00,
2013-01-13 00:26:00,70.9,65.5,29.72,SW,230,9.0,17.0,83,0.00,,---,0.00,0.00,VWS V14.00,2013-01-13 06:26:00,
2013-01-13 00:30:00,70.9,65.5,29.72,SSE,153,9.0,17.0,83,0.00,,---,0.00,0.00,VWS V14.00,2013-01-13 06:30:00,
2013-01-13 00:31:00,71.0,65.6,29.72,SW,221,11.0,11.0,83,0.00,,---,0.00,0.00,VWS V14.00,2013-01-13 06:31:00,
2013-01-13 00:36:00,71.0,65.6,29.72,SW,228,3.0,17.0,83,0.00,,---,0.00,0.00,VWS V14.00,2013-01-13 06:36:00,
2013-01-13 00:41:00,71.1,65.7,29.72,SSW,207,7.0,18.0,83,0.00,,---,0.00,0.00,VWS V14.00,2013-01-13 06:41:00,
2013-01-13 00:46:00,71.1,65.7,29.73,SSW,194,13.0,18.0,83,0.00,,---,0.00,0.00,VWS V14.00,2013-01-13 06:46:00,
2013-01-13 00:51:00,71.1,65.7,29.72,SSE,163,4.0,18.0,83,0.00,,---,0.00,0.00,VWS V14.00,2013-01-13 06:51:00,
2013-01-13 00:56:00,71.1,65.7,29.72,SSE,161,5.0,18.0,83,0.00,,---,0.00,0.00,VWS V14.00,2013-01-13 06:56:00,
2013-01-13 01:00:00,71.1,65.7,29.72,SSE,157,4.0,18.0,83,0.00,,---,0.00,0.00,VWS V14.00,2013-01-13 07:00:00,
2013-01-13 01:01:00,71.0,65.6,29.72,SSE,164,0.0,17.0,83,0.00,,---,0.00,0.00,VWS V14.00,2013-01-13 07:01:00,
2013-01-13 01:06:00,71.0,65.6,29.72,South,182,4.0,22.0,83,0.00,,---,0.00,0.00,VWS V14.00,2013-01-13 07:06:00,
2013-01-13 01:11:00,71.0,65.6,29.72,South,185,4.0,22.0,83,0.00,,---,0.00,0.00,VWS V14.00,2013-01-13 07:11:00,
2013-01-13 01:16:00,71.0,65.6,29.72,South,188,4.0,22.0,83,0.00,,---,0.00,0.00,VWS V14.00,2013-01-13 07:16:00,
2013-01-13 01:21:00,71.0,65.6,29.72,South,183,11.0,22.0,83,0.00,,---,0.00,0.00,VWS V14.00,2013-01-13 07:21:00,
2013-01-13 01:26:00,71.0,65.6,29.72,South,190,2.0,22.0,83,0.00,,---,0.00,0.00,VWS V14.00,2013-01-13 07:26:00,
2013-01-13 01:30:00,71.0,65.9,29.72,South,191,6.0,22.0,84,0.00,,---,0.00,0.00,VWS V14.00,2013-01-13 07:30:00,
2013-01-13 01:31:00,70.9,65.8,29.72,SSE,159,11.0,14.0,84,0.00,,---,0.00,0.00,VWS V14.00,2013-01-13 07:31:00,
2013-01-13 01:36:00,70.9,65.8,29.72,SSW,212,12.0,19.0,84,0.00,,---,0.00,0.00,VWS V14.00,2013-01-13 07:36:00,
2013-01-13 01:41:00,70.9,65.8,29.72,South,188,6.0,19.0,84,0.00,,---,0.00,0.00,VWS V14.00,2013-01-13 07:41:00,
2013-01-13 01:46:00,70.9,65.8,29.73,South,190,11.0,19.0,84,0.00,,---,0.00,0.00,VWS V14.00,2013-01-13 07:46:00,
2013-01-13 01:51:00,70.8,65.7,29.72,South,180,3.0,20.0,84,0.00,,---,0.00,0.00,VWS V14.00,2013-01-13 07:51:00,
2013-01-13 01:56:00,70.6,65.9,29.72,SSW,200,5.0,20.0,85,0.00,,---,0.00,0.00,VWS V14.00,2013-01-13 07:56:00,
2013-01-13 02:00:00,70.5,65.8,29.72,SSW,202,9.0,20.0,85,0.00,,---,0.00,0.00,VWS V14.00,2013-01-13 08:00:00,
2013-01-13 02:01:00,70.4,65.7,29.73,South,171,8.0,10.0,85,0.00,,---,0.01,0.00,VWS V14.00,2013-01-13 08:01:00,
2013-01-13 02:06:00,70.0,66.0,29.73,SSW,196,7.0,14.0,87,0.62,,---,0.09,0.00,VWS V14.00,2013-01-13 08:06:00,
2013-01-13 02:11:00,69.4,66.0,29.74,SSW,208,0.0,15.0,89,0.13,,---,0.09,0.00,VWS V14.00,2013-01-13 08:11:00,
2013-01-13 02:16:00,69.0,65.9,29.73,South,175,4.0,15.0,90,0.06,,---,0.09,0.00,VWS V14.00,2013-01-13 08:16:00,
2013-01-13 02:21:00,68.9,65.8,29.73,SSE,153,1.0,15.0,90,0.04,,---,0.09,0.00,VWS V14.00,2013-01-13 08:21:00,
2013-01-13 02:26:00,68.9,65.8,29.74,SW,232,0.0,15.0,90,0.04,,---,0.11,0.00,VWS V14.00,2013-01-13 08:26:00,
2013-01-13 02:30:00,68.9,65.8,29.76,WSW,252,0.0,15.0,90,0.75,,---,0.12,0.00,VWS V14.00,2013-01-13 08:30:00,
2013-01-13 02:31:00,68.7,66.0,29.77,NNW,342,5.0,14.0,91,0.56,,---,0.23,0.00,VWS V14.00,2013-01-13 08:31:00,
2013-01-13 02:36:00,66.9,62.9,29.77,West,271,3.0,14.0,87,0.13,,---,0.23,0.00,VWS V14.00,2013-01-13 08:36:00,
2013-01-13 02:41:00,65.1,61.5,29.77,West,266,5.0,21.0,88,0.10,,---,0.24,0.00,VWS V14.00,2013-01-13 08:41:00,
2013-01-13 02:46:00,63.9,60.9,29.78,WSW,249,3.0,21.0,90,1.96,,---,0.36,0.00,VWS V14.00,2013-01-13 08:46:00,
2013-01-13 02:51:00,63.1,60.7,29.80,WSW,242,2.0,21.0,92,2.30,,---,0.56,0.00,VWS V14.00,2013-01-13 08:51:00,
2013-01-13 02:56:00,62.7,60.7,29.77,West,271,5.0,21.0,93,1.76,,---,0.69,0.00,VWS V14.00,2013-01-13 08:56:00,
2013-01-13 03:00:00,62.6,60.8,29.77,SW,228,1.0,21.0,94,0.81,,---,0.72,0.00,VWS V14.00,2013-01-13 09:00:00,
2013-01-13 03:01:00,62.6,60.8,29.78,South,176,3.0,17.0,94,1.03,,---,0.81,0.00,VWS V14.00,2013-01-13 09:01:00,
2013-01-13 03:06:00,62.5,60.8,29.77,SW,223,13.0,20.0,94,1.50,,---,0.92,0.00,VWS V14.00,2013-01-13 09:06:00,
2013-01-13 03:11:00,62.5,61.0,29.77,West,260,9.0,20.0,95,0.50,,---,0.98,0.00,VWS V14.00,2013-01-13 09:11:00,
2013-01-13 03:16:00,62.5,61.0,29.77,WSW,240,9.0,20.0,95,0.40,,---,1.06,0.00,VWS V14.00,2013-01-13 09:16:00,
2013-01-13 03:21:00,62.4,61.0,29.76,WSW,238,9.0,20.0,95,1.11,,---,1.12,0.00,VWS V14.00,2013-01-13 09:21:00,
2013-01-13 03:26:00,62.5,61.0,29.77,SW,226,6.0,20.0,95,0.43,,---,1.16,0.00,VWS V14.00,2013-01-13 09:26:00,
2013-01-13 03:30:00,62.5,61.0,29.77,WSW,240,1.0,20.0,95,0.35,,---,1.16,0.00,VWS V14.00,2013-01-13 09:30:00,
2013-01-13 03:31:00,61.7,60.0,29.77,NW,319,0.0,4.0,94,0.40,,---,1.20,0.00,VWS V14.00,2013-01-13 09:31:00,
2013-01-13 03:36:00,59.6,57.0,29.79,NNW,336,0.0,4.0,91,0.40,,---,1.23,0.00,VWS V14.00,2013-01-13 09:36:00,
2013-01-13 03:41:00,58.3,55.7,29.78,NNW,331,0.0,4.0,91,0.62,,---,1.30,0.00,VWS V14.00,2013-01-13 09:41:00,
2013-01-13 03:46:00,57.3,55.0,29.79,NNW,327,0.0,4.0,92,0.51,,---,1.35,0.00,VWS V14.00,2013-01-13 09:46:00,
2013-01-13 03:51:00,56.5,54.5,29.79,NW,305,0.0,4.0,93,0.44,,---,1.38,0.00,VWS V14.00,2013-01-13 09:51:00,
2013-01-13 03:56:00,55.4,53.1,29.79,WSW,252,0.0,4.0,92,0.28,,---,1.40,0.00,VWS V14.00,2013-01-13 09:56:00,
2013-01-13 04:00:00,55.1,52.8,29.79,WSW,257,0.0,4.0,92,0.22,,---,1.41,0.00,VWS V14.00,2013-01-13 10:00:00,
2013-01-13 04:01:00,54.3,52.0,29.79,NNE,12,1.0,4.0,92,0.34,,---,1.43,0.00,VWS V14.00,2013-01-13 10:01:00,
2013-01-13 04:06:00,53.4,51.1,29.80,West,275,0.0,4.0,92,0.20,,---,1.45,0.00,VWS V14.00,2013-01-13 10:06:00,
2013-01-13 04:11:00,52.9,50.9,29.81,NW,322,4.0,4.0,93,0.39,,---,1.47,0.00,VWS V14.00,2013-01-13 10:11:00,
2013-01-13 04:16:00,52.3,50.6,29.81,NNW,327,0.0,4.0,94,0.18,,---,1.49,0.00,VWS V14.00,2013-01-13 10:16:00,
2013-01-13 04:21:00,51.7,50.0,29.81,WSW,251,0.0,4.0,94,0.20,,---,1.50,0.00,VWS V14.00,2013-01-13 10:21:00,
2013-01-13 04:26:00,51.2,49.5,29.81,North,350,0.0,4.0,94,0.27,,---,1.52,0.00,VWS V14.00,2013-01-13 10:26:00,
2013-01-13 04:30:00,51.1,49.4,29.81,NNW,327,0.0,4.0,94,0.26,,---,1.52,0.00,VWS V14.00,2013-01-13 10:30:00,
2013-01-13 04:31:00,50.8,49.1,29.81,NNE,30,0.0,3.0,94,0.16,,---,1.53,0.00,VWS V14.00,2013-01-13 10:31:00,
2013-01-13 04:36:00,50.6,49.2,29.82,NW,309,0.0,3.0,95,0.30,,---,1.55,0.00,VWS V14.00,2013-01-13 10:36:00,
2013-01-13 04:41:00,50.5,49.1,29.81,ENE,66,0.0,3.0,95,0.22,,---,1.57,0.00,VWS V14.00,2013-01-13 10:41:00,
2013-01-13 04:46:00,50.5,49.1,29.82,North,5,0.0,3.0,95,0.26,,---,1.59,0.00,VWS V14.00,2013-01-13 10:46:00,
2013-01-13 04:51:00,50.4,49.0,29.82,NW,311,3.0,4.0,95,0.12,,---,1.60,0.00,VWS V14.00,2013-01-13 10:51:00,
2013-01-13 04:56:00,50.3,48.9,29.81,NW,323,0.0,5.0,95,0.11,,---,1.61,0.00,VWS V14.00,2013-01-13 10:56:00,
2013-01-13 05:00:00,50.3,48.9,29.80,NE,44,0.0,5.0,95,0.11,,---,1.61,0.00,VWS V14.00,2013-01-13 11:00:00,
2013-01-13 05:01:00,50.2,48.8,29.79,NNE,33,0.0,2.0,95,0.13,,---,1.62,0.00,VWS V14.00,2013-01-13 11:01:00,
2013-01-13 05:06:00,50.3,49.2,29.78,NE,34,0.0,2.0,96,0.13,,---,1.63,0.00,VWS V14.00,2013-01-13 11:06:00,
2013-01-13 05:11:00,50.3,49.2,29.78,NNE,22,0.0,2.0,96,0.18,,---,1.65,0.00,VWS V14.00,2013-01-13 11:11:00,
2013-01-13 05:16:00,50.3,49.2,29.79,NNE,22,0.0,2.0,96,0.23,,---,1.66,0.00,VWS V14.00,2013-01-13 11:16:00,
2013-01-13 05:21:00,50.4,49.3,29.77,NNE,17,0.0,2.0,96,0.31,,---,1.69,0.00,VWS V14.00,2013-01-13 11:21:00,
2013-01-13 05:26:00,50.4,49.3,29.79,NNE,17,0.0,2.0,96,0.28,,---,1.72,0.00,VWS V14.00,2013-01-13 11:26:00,
2013-01-13 05:30:00,50.4,49.3,29.79,NNE,17,0.0,2.0,96,0.27,,---,1.72,0.00,VWS V14.00,2013-01-13 11:30:00,
2013-01-13 05:31:00,50.5,49.4,29.79,NNE,17,0.0,0.0,96,0.15,,---,1.74,0.00,VWS V14.00,2013-01-13 11:31:00,
2013-01-13 05:36:00,50.6,49.5,29.80,WNW,293,0.0,0.0,96,0.34,,---,1.77,0.00,VWS V14.00,2013-01-13 11:36:00,
2013-01-13 05:41:00,50.6,49.5,29.81,West,261,0.0,2.0,96,0.34,,---,1.80,0.00,VWS V14.00,2013-01-13 11:41:00,
2013-01-13 05:46:00,50.5,49.4,29.82,WSW,237,1.0,6.0,96,0.28,,---,1.82,0.00,VWS V14.00,2013-01-13 11:46:00,
2013-01-13 05:51:00,49.8,48.4,29.82,North,5,3.0,10.0,95,0.17,,---,1.83,0.00,VWS V14.00,2013-01-13 11:51:00,
2013-01-13 05:56:00,49.3,47.9,29.83,North,355,0.0,10.0,95,0.13,,---,1.84,0.00,VWS V14.00,2013-01-13 11:56:00,
2013-01-13 06:00:00,49.2,47.8,29.84,NW,311,0.0,10.0,95,0.10,,---,1.84,0.00,VWS V14.00,2013-01-13 12:00:00,
2013-01-13 06:01:00,49.0,47.6,29.82,NE,47,0.0,2.0,95,0.07,,---,1.84,0.00,VWS V14.00,2013-01-13 12:01:00,
2013-01-13 06:06:00,48.7,47.3,29.82,NNE,30,3.0,3.0,95,0.04,,---,1.84,0.00,VWS V14.00,2013-01-13 12:06:00,
2013-01-13 06:11:00,48.3,46.9,29.81,North,11,0.0,5.0,95,0.04,,---,1.85,0.00,VWS V14.00,2013-01-13 12:11:00,
2013-01-13 06:16:00,48.2,46.8,29.81,NE,47,0.0,5.0,95,0.04,,---,1.85,0.00,VWS V14.00,2013-01-13 12:16:00,
2013-01-13 06:21:00,48.1,46.7,29.81,North,355,2.0,5.0,95,0.04,,---,1.85,0.00,VWS V14.00,2013-01-13 12:21:00,
2013-01-13 06:26:00,47.8,46.4,29.81,NE,45,3.0,6.0,95,0.04,,---,1.86,0.00,VWS V14.00,2013-01-13 12:26:00,
2013-01-13 06:30:00,47.7,46.3,29.81,NE,34,0.0,6.0,95,0.04,,---,1.86,0.00,VWS V14.00,2013-01-13 12:30:00,
2013-01-13 06:31:00,47.6,46.2,29.81,NNW,335,0.0,5.0,95,0.04,,---,1.86,0.00,VWS V14.00,2013-01-13 12:31:00,
2013-01-13 06:36:00,47.5,46.1,29.82,NE,38,0.0,5.0,95,0.04,,---,1.86,0.00,VWS V14.00,2013-01-13 12:36:00,
2013-01-13 06:41:00,47.4,46.0,29.81,NNW,346,0.0,5.0,95,0.00,,---,1.87,0.00,VWS V14.00,2013-01-13 12:41:00,
2013-01-13 06:46:00,47.2,45.8,29.81,NE,42,0.0,5.0,95,0.00,,---,1.87,0.00,VWS V14.00,2013-01-13 12:46:00,
2013-01-13 06:51:00,46.9,45.5,29.82,North,355,0.0,5.0,95,0.07,,---,1.88,0.00,VWS V14.00,2013-01-13 12:51:00,
2013-01-13 06:56:00,46.5,45.2,29.82,NNE,32,0.0,5.0,95,2.49,,---,2.04,0.00,VWS V14.00,2013-01-13 12:56:00,
2013-01-13 07:00:00,46.3,45.0,29.83,NW,304,0.0,5.0,95,1.60,,---,2.08,0.00,VWS V14.00,2013-01-13 13:00:00,
2013-01-13 07:01:00,46.2,44.8,29.84,WNW,302,4.0,5.0,95,0.37,,---,2.11,0.00,VWS V14.00,2013-01-13 13:01:00,
2013-01-13 07:06:00,45.9,44.5,29.83,NNE,22,0.0,5.0,95,0.44,,---,2.14,0.00,VWS V14.00,2013-01-13 13:06:00,
2013-01-13 07:11:00,45.6,44.2,29.84,NW,325,0.0,5.0,95,0.59,,---,2.19,0.00,VWS V14.00,2013-01-13 13:11:00,
2013-01-13 07:16:00,45.5,44.2,29.83,NNW,331,0.0,5.0,95,0.73,,---,2.26,0.00,VWS V14.00,2013-01-13 13:16:00,
2013-01-13 07:21:00,45.4,44.3,29.84,NE,49,0.0,5.0,96,0.91,,---,2.34,0.00,VWS V14.00,2013-01-13 13:21:00,
2013-01-13 07:26:00,45.4,44.3,29.85,NNE,24,0.0,5.0,96,0.68,,---,2.40,0.00,VWS V14.00,2013-01-13 13:26:00,
2013-01-13 07:30:00,45.4,44.3,29.86,NW,318,0.0,5.0,96,0.83,,---,2.42,0.00,VWS V14.00,2013-01-13 13:30:00,
2013-01-13 07:31:00,45.3,44.2,29.85,West,259,0.0,0.0,96,1.15,,---,2.48,0.00,VWS V14.00,2013-01-13 13:31:00,
2013-01-13 07:36:00,45.1,44.0,29.86,ENE,76,0.0,5.0,96,1.19,,---,2.60,0.00,VWS V14.00,2013-01-13 13:36:00,
2013-01-13 07:41:00,44.9,43.8,29.89,NW,325,0.0,6.0,96,1.06,,---,2.68,0.00,VWS V14.00,2013-01-13 13:41:00,
2013-01-13 07:46:00,44.5,43.2,29.87,NW,306,3.0,7.0,95,1.02,,---,2.75,0.00,VWS V14.00,2013-01-13 13:46:00,
2013-01-13 07:51:00,44.1,43.0,29.88,NW,313,0.0,7.0,96,0.68,,---,2.82,0.00,VWS V14.00,2013-01-13 13:51:00,
2013-01-13 07:56:00,43.8,42.5,29.88,NNE,13,0.0,7.0,95,0.86,,---,2.92,0.00,VWS V14.00,2013-01-13 13:56:00,
2013-01-13 08:00:00,43.7,42.4,29.87,NNW,338,0.0,7.0,95,0.72,,---,2.95,5.00,VWS V14.00,2013-01-13 14:00:00,
2013-01-13 08:01:00,43.5,42.2,29.87,NE,49,1.0,10.0,95,0.32,,---,2.96,7.00,VWS V14.00,2013-01-13 14:01:00,
2013-01-13 08:06:00,43.3,42.0,29.87,ENE,78,0.0,10.0,95,0.27,,---,2.98,5.00,VWS V14.00,2013-01-13 14:06:00,
2013-01-13 08:11:00,43.2,42.1,29.89,NNW,348,0.0,10.0,96,0.43,,---,3.01,0.00,VWS V14.00,2013-01-13 14:11:00,
2013-01-13 08:16:00,43.1,42.0,29.89,North,5,4.0,10.0,96,0.51,,---,3.05,7.00,VWS V14.00,2013-01-13 14:16:00,
2013-01-13 08:21:00,43.0,41.9,29.90,North,351,0.0,10.0,96,0.25,,---,3.07,9.00,VWS V14.00,2013-01-13 14:21:00,
2013-01-13 08:26:00,42.6,41.3,29.91,NNE,28,6.0,10.0,95,0.16,,---,3.09,11.00,VWS V14.00,2013-01-13 14:26:00,
2013-01-13 08:30:00,42.5,41.2,29.91,NE,47,0.0,10.0,95,0.32,,---,3.10,12.00,VWS V14.00,2013-01-13 14:30:00,
2013-01-13 08:31:00,42.3,41.0,29.91,WNW,285,0.0,9.0,95,0.32,,---,3.12,19.00,VWS V14.00,2013-01-13 14:31:00,
2013-01-13 08:36:00,42.0,40.7,29.92,WNW,288,0.0,9.0,95,0.21,,---,3.13,23.00,VWS V14.00,2013-01-13 14:36:00,
2013-01-13 08:41:00,41.8,40.5,29.92,West,266,3.0,10.0,95,0.11,,---,3.14,33.00,VWS V14.00,2013-01-13 14:41:00,
2013-01-13 08:46:00,41.7,40.7,29.90,NE,55,1.0,10.0,96,0.32,,---,3.16,32.00,VWS V14.00,2013-01-13 14:46:00,
2013-01-13 08:51:00,41.7,40.4,29.91,West,277,0.0,10.0,95,0.21,,---,3.18,26.00,VWS V14.00,2013-01-13 14:51:00,
2013-01-13 08:56:00,41.5,40.2,29.91,NE,55,0.0,10.0,95,0.11,,---,3.19,19.00,VWS V14.00,2013-01-13 14:56:00,
2013-01-13 09:00:00,41.5,40.2,29.90,ENE,60,4.0,10.0,95,0.11,,---,3.19,16.00,VWS V14.00,2013-01-13 15:00:00,
2013-01-13 09:01:00,41.5,40.5,29.90,North,5,0.0,7.0,96,0.30,,---,3.21,14.00,VWS V14.00,2013-01-13 15:01:00,
2013-01-13 09:06:00,41.4,40.3,29.91,NNE,19,7.0,7.0,96,0.11,,---,3.22,12.00,VWS V14.00,2013-01-13 15:06:00,
2013-01-13 09:11:00,41.4,40.3,29.90,North,350,0.0,7.0,96,0.13,,---,3.23,9.00,VWS V14.00,2013-01-13 15:11:00,
2013-01-13 09:15:00,41.5,40.5,29.87,North,5,3.0,11.0,96,0.40,,---,3.25,11.00,VWS V14.00,2013-01-13 15:15:00,
2013-01-13 09:20:00,41.5,40.5,29.87,NNW,348,4.0,11.0,96,0.28,,---,3.27,14.00,VWS V14.00,2013-01-13 15:20:00,
2013-01-13 09:25:00,41.5,40.5,29.88,ENE,60,3.0,11.0,96,0.09,,---,3.27,12.00,VWS V14.00,2013-01-13 15:25:00,
2013-01-13 09:30:00,41.5,40.5,29.89,North,355,0.0,6.0,96,0.08,,---,3.28,12.00,VWS V14.00,2013-01-13 15:30:00,
2013-01-13 09:35:00,41.6,40.5,29.88,NE,39,3.0,9.0,96,0.51,,---,3.31,12.00,VWS V14.00,2013-01-13 15:35:00,
2013-01-13 09:40:00,41.6,40.5,29.87,NNW,346,0.0,9.0,96,0.17,,---,3.32,9.00,VWS V14.00,2013-01-13 15:40:00,
2013-01-13 09:45:00,41.7,40.7,29.89,NE,56,0.0,9.0,96,0.10,,---,3.33,7.00,VWS V14.00,2013-01-13 15:45:00,
2013-01-13 09:50:00,41.8,40.8,29.90,North,360,0.0,9.0,96,0.47,,---,3.36,5.00,VWS V14.00,2013-01-13 15:50:00,
2013-01-13 09:55:00,41.8,40.8,29.91,NNE,17,0.0,9.0,96,0.47,,---,3.39,5.00,VWS V14.00,2013-01-13 15:55:00,
2013-01-13 10:00:00,41.8,40.8,29.90,NNE,23,0.0,4.0,96,1.13,,---,3.50,5.00,VWS V14.00,2013-01-13 16:00:00,
2013-01-13 10:05:00,41.7,40.7,29.90,NNE,19,0.0,6.0,96,0.71,,---,3.55,5.00,VWS V14.00,2013-01-13 16:05:00,
2013-01-13 10:10:00,41.7,40.7,29.89,NE,40,0.0,6.0,96,0.49,,---,3.59,9.00,VWS V14.00,2013-01-13 16:10:00,
2013-01-13 10:15:00,41.7,40.7,29.92,NNW,331,0.0,6.0,96,0.25,,---,3.61,7.00,VWS V14.00,2013-01-13 16:15:00,
2013-01-13 10:20:00,41.7,40.7,29.91,NNW,329,4.0,6.0,96,0.17,,---,3.63,9.00,VWS V14.00,2013-01-13 16:20:00,
2013-01-13 10:25:00,41.7,40.7,29.93,West,265,0.0,6.0,96,0.17,,---,3.65,11.00,VWS V14.00,2013-01-13 16:25:00,
2013-01-13 10:30:00,41.7,40.7,29.94,WSW,244,0.0,4.0,96,0.22,,---,3.67,9.00,VWS V14.00,2013-01-13 16:30:00,
2013-01-13 10:35:00,41.7,40.7,29.91,North,9,4.0,6.0,96,0.67,,---,3.70,11.00,VWS V14.00,2013-01-13 16:35:00,
2013-01-13 10:40:00,41.5,40.5,29.91,North,5,0.0,9.0,96,0.27,,---,3.72,12.00,VWS V14.00,2013-01-13 16:40:00,
2013-01-13 10:45:00,41.6,40.5,29.89,NE,44,5.0,9.0,96,0.22,,---,3.74,26.00,VWS V14.00,2013-01-13 16:45:00,
2013-01-13 10:50:00,41.5,40.5,29.92,NNW,327,2.0,9.0,96,0.20,,---,3.76,28.00,VWS V14.00,2013-01-13 16:50:00,
2013-01-13 10:55:00,41.5,40.5,29.94,West,269,0.0,9.0,96,0.10,,---,3.76,11.00,VWS V14.00,2013-01-13 16:55:00,
2013-01-13 11:00:00,41.5,40.5,29.93,NNE,13,4.0,6.0,96,0.08,,---,3.77,19.00,VWS V14.00,2013-01-13 17:00:00,
2013-01-13 11:05:00,41.4,40.3,29.93,East,79,0.0,9.0,96,0.44,,---,3.80,21.00,VWS V14.00,2013-01-13 17:05:00,
2013-01-13 11:10:00,41.3,40.2,29.95,WNW,286,0.0,9.0,96,0.20,,---,3.82,14.00,VWS V14.00,2013-01-13 17:10:00,
2013-01-13 11:15:00,41.2,40.2,29.96,NW,315,2.0,11.0,96,0.31,,---,3.85,21.00,VWS V14.00,2013-01-13 17:15:00,
2013-01-13 11:20:00,41.1,40.0,29.94,NNW,340,0.0,11.0,96,0.42,,---,3.88,69.00,VWS V14.00,2013-01-13 17:20:00,
2013-01-13 11:25:00,41.1,40.0,29.95,NNE,15,10.0,11.0,96,0.18,,---,3.89,65.00,VWS V14.00,2013-01-13 17:25:00,
2013-01-13 11:30:00,41.1,40.0,29.92,NE,48,0.0,10.0,96,0.13,,---,3.90,77.00,VWS V14.00,2013-01-13 17:30:00,
2013-01-13 11:35:00,41.0,40.0,29.94,North,355,3.0,12.0,96,0.08,,---,3.91,42.00,VWS V14.00,2013-01-13 17:35:00,
2013-01-13 11:40:00,41.0,40.0,29.94,SSE,155,0.0,12.0,96,0.08,,---,3.91,25.00,VWS V14.00,2013-01-13 17:40:00,
2013-01-13 11:45:00,41.0,40.0,29.94,WNW,287,4.0,12.0,96,0.06,,---,3.92,19.00,VWS V14.00,2013-01-13 17:45:00,
2013-01-13 11:50:00,40.9,39.8,29.93,NW,325,0.0,12.0,96,0.26,,---,3.94,26.00,VWS V14.00,2013-01-13 17:50:00,
2013-01-13 11:55:00,40.6,39.5,29.93,NE,45,0.0,12.0,96,0.30,,---,3.96,39.00,VWS V14.00,2013-01-13 17:55:00,
2013-01-13 12:00:00,40.6,39.5,29.94,NW,323,2.0,11.0,96,0.21,,---,3.98,35.00,VWS V14.00,2013-01-13 18:00:00,
2013-01-13 12:05:00,40.4,39.1,29.93,NNE,17,7.0,14.0,95,0.15,,---,3.99,58.00,VWS V14.00,2013-01-13 18:05:00,
2013-01-13 12:10:00,40.4,39.1,29.93,SW,233,0.0,15.0,95,0.18,,---,4.01,76.00,VWS V14.00,2013-01-13 18:10:00,
2013-01-13 12:15:00,40.4,39.1,29.95,NE,38,0.0,15.0,95,0.11,,---,4.01,56.00,VWS V14.00,2013-01-13 18:15:00,
2013-01-13 12:20:00,40.4,39.1,29.94,North,9,3.0,15.0,95,0.08,,---,4.02,39.00,VWS V14.00,2013-01-13 18:20:00,
2013-01-13 12:25:00,40.4,39.1,29.95,NE,49,11.0,15.0,95,0.08,,---,4.03,49.00,VWS V14.00,2013-01-13 18:25:00,
2013-01-13 12:30:00,40.4,39.1,29.95,SW,227,2.0,8.0,95,0.16,,---,4.04,56.00,VWS V14.00,2013-01-13 18:30:00,
2013-01-13 12:35:00,40.3,39.0,29.95,North,9,0.0,8.0,95,0.09,,---,4.04,37.00,VWS V14.00,2013-01-13 18:35:00,
2013-01-13 12:40:00,40.3,39.0,29.95,SSW,200,3.0,8.0,95,0.06,,---,4.04,28.00,VWS V14.00,2013-01-13 18:40:00,
2013-01-13 12:45:00,40.3,39.0,29.93,NW,325,3.0,8.0,95,0.16,,---,4.06,44.00,VWS V14.00,2013-01-13 18:45:00,
2013-01-13 12:50:00,40.2,38.9,29.93,North,349,6.0,10.0,95,0.10,,---,4.07,53.00,VWS V14.00,2013-01-13 18:50:00,
2013-01-13 12:55:00,40.2,38.9,29.93,North,11,0.0,10.0,95,0.09,,---,4.07,65.00,VWS V14.00,2013-01-13 18:55:00,
2013-01-13 13:00:00,40.2,38.9,29.93,NNE,30,0.0,6.0,95,0.06,,---,4.07,76.00,VWS V14.00,2013-01-13 19:00:00,
2013-01-13 13:05:00,40.3,39.0,29.94,NNE,26,1.0,9.0,95,0.05,,---,4.08,70.00,VWS V14.00,2013-01-13 19:05:00,
2013-01-13 13:10:00,40.3,39.0,29.94,NNE,21,0.0,9.0,95,0.05,,---,4.08,88.00,VWS V14.00,2013-01-13 19:10:00,
2013-01-13 13:15:00,40.3,39.0,29.95,NNE,31,5.0,9.0,95,0.05,,---,4.08,83.00,VWS V14.00,2013-01-13 19:15:00,
2013-01-13 13:20:00,40.3,39.0,29.95,NE,34,0.0,9.0,95,0.00,,---,4.08,70.00,VWS V14.00,2013-01-13 19:20:00,
2013-01-13 13:25:00,40.3,39.0,29.96,NNE,24,2.0,9.0,95,0.00,,---,4.08,65.00,VWS V14.00,2013-01-13 19:25:00,
2013-01-13 13:30:00,40.3,39.0,29.96,NW,315,0.0,4.0,95,0.00,,---,4.08,60.00,VWS V14.00,2013-01-13 19:30:00,
2013-01-13 13:35:00,40.3,39.0,29.96,NE,53,0.0,4.0,95,0.00,,---,4.08,65.00,VWS V14.00,2013-01-13 19:35:00,
2013-01-13 13:40:00,40.2,38.9,29.96,NE,53,0.0,5.0,95,0.00,,---,4.08,72.00,VWS V14.00,2013-01-13 19:40:00,
2013-01-13 13:45:00,40.4,39.1,29.96,NNE,26,2.0,5.0,95,0.00,,---,4.08,56.00,VWS V14.00,2013-01-13 19:45:00,
2013-01-13 13:50:00,40.4,39.1,29.95,North,5,2.0,10.0,95,0.00,,---,4.08,44.00,VWS V14.00,2013-01-13 19:50:00,
2013-01-13 13:55:00,40.2,38.9,29.96,NNE,31,0.0,10.0,95,0.00,,---,4.08,33.00,VWS V14.00,2013-01-13 19:55:00,
2013-01-13 14:00:00,40.2,38.9,29.96,NE,46,0.0,7.0,95,0.00,,---,4.08,62.00,VWS V14.00,2013-01-13 20:00:00,
2013-01-13 14:05:00,40.3,39.0,29.98,NE,42,0.0,7.0,95,0.00,,---,4.09,46.00,VWS V14.00,2013-01-13 20:05:00,
2013-01-13 14:10:00,40.4,39.1,29.99,WNW,288,4.0,7.0,95,0.00,,---,4.09,44.00,VWS V14.00,2013-01-13 20:10:00,
2013-01-13 14:15:00,40.4,39.1,30.00,NNE,19,2.0,7.0,95,0.00,,---,4.09,39.00,VWS V14.00,2013-01-13 20:15:00,
2013-01-13 14:20:00,40.3,39.0,30.01,WNW,293,0.0,7.0,95,0.00,,---,4.09,32.00,VWS V14.00,2013-01-13 20:20:00,
2013-01-13 14:25:00,40.3,39.0,30.01,NNW,346,4.0,7.0,95,0.00,,---,4.09,58.00,VWS V14.00,2013-01-13 20:25:00,
2013-01-13 14:30:00,40.2,38.9,30.01,NNE,15,1.0,9.0,95,0.00,,---,4.10,69.00,VWS V14.00,2013-01-13 20:30:00,
2013-01-13 14:35:00,40.2,38.9,30.01,NE,55,3.0,9.0,95,0.00,,---,4.10,33.00,VWS V14.00,2013-01-13 20:35:00,
2013-01-13 14:40:00,40.1,38.8,30.02,NNW,336,0.0,9.0,95,0.00,,---,4.10,23.00,VWS V14.00,2013-01-13 20:40:00,
2013-01-13 14:45:00,40.1,38.8,30.03,NNW,331,1.0,9.0,95,0.00,,---,4.10,23.00,VWS V14.00,2013-01-13 20:45:00,
2013-01-13 14:50:00,40.2,38.9,30.03,North,11,0.0,9.0,95,0.00,,---,4.11,23.00,VWS V14.00,2013-01-13 20:50:00,
2013-01-13 14:55:00,40.3,39.0,30.05,NW,317,7.0,9.0,95,0.12,,---,4.12,23.00,VWS V14.00,2013-01-13 20:55:00,
2013-01-13 15:00:00,40.2,38.9,30.04,ENE,66,1.0,11.0,95,0.08,,---,4.12,33.00,VWS V14.00,2013-01-13 21:00:00,
2013-01-13 15:05:00,40.2,38.9,30.05,NNW,346,3.0,11.0,95,0.17,,---,4.14,37.00,VWS V14.00,2013-01-13 21:05:00,
2013-01-13 15:10:00,40.0,38.7,30.04,WNW,284,0.0,11.0,95,0.09,,---,4.14,32.00,VWS V14.00,2013-01-13 21:10:00,
2013-01-13 15:15:00,39.8,38.5,30.05,NNW,343,0.0,11.0,95,0.05,,---,4.14,19.00,VWS V14.00,2013-01-13 21:15:00,
2013-01-13 15:20:00,39.7,38.1,30.05,NE,55,0.0,11.0,94,0.04,,---,4.14,44.00,VWS V14.00,2013-01-13 21:20:00,
2013-01-13 15:25:00,39.6,38.3,30.08,North,360,0.0,15.0,95,0.00,,---,4.14,16.00,VWS V14.00,2013-01-13 21:25:00,
2013-01-13 15:30:00,39.6,38.3,30.08,ENE,67,0.0,3.0,95,0.00,,---,4.14,25.00,VWS V14.00,2013-01-13 21:30:00,
2013-01-13 15:35:00,39.4,37.8,30.08,North,5,0.0,12.0,94,0.00,,---,4.15,30.00,VWS V14.00,2013-01-13 21:35:00,
2013-01-13 15:40:00,39.3,37.7,30.07,ENE,73,4.0,12.0,94,0.00,,---,4.15,21.00,VWS V14.00,2013-01-13 21:40:00,
2013-01-13 15:45:00,39.1,37.5,30.09,North,5,0.0,12.0,94,0.09,,---,4.16,21.00,VWS V14.00,2013-01-13 21:45:00,
2013-01-13 15:50:00,38.9,37.3,30.09,West,259,1.0,16.0,94,0.07,,---,4.16,30.00,VWS V14.00,2013-01-13 21:50:00,
2013-01-13 15:55:00,38.8,37.2,30.09,NW,321,0.0,16.0,94,0.04,,---,4.16,46.00,VWS V14.00,2013-01-13 21:55:00,
2013-01-13 16:00:00,38.6,37.0,30.10,West,266,0.0,10.0,94,0.00,,---,4.16,42.00,VWS V14.00,2013-01-13 22:00:00,
2013-01-13 16:05:00,38.3,36.7,30.10,WNW,291,0.0,15.0,94,0.00,,---,4.16,21.00,VWS V14.00,2013-01-13 22:05:00,
2013-01-13 16:10:00,38.0,36.4,30.11,NW,317,9.0,15.0,94,0.00,,---,4.16,19.00,VWS V14.00,2013-01-13 22:10:00,
2013-01-13 16:15:00,37.9,36.3,30.11,East,95,0.0,15.0,94,0.00,,---,4.16,11.00,VWS V14.00,2013-01-13 22:15:00,
2013-01-13 16:20:00,37.7,36.1,30.11,NW,308,0.0,15.0,94,0.00,,---,4.16,12.00,VWS V14.00,2013-01-13 22:20:00,
2013-01-13 16:25:00,37.4,35.8,30.11,NE,39,0.0,15.0,94,0.00,,---,4.16,18.00,VWS V14.00,2013-01-13 22:25:00,
2013-01-13 16:30:00,37.1,35.5,30.11,NNE,17,6.0,6.0,94,0.00,,---,4.16,14.00,VWS V14.00,2013-01-13 22:30:00,
2013-01-13 16:35:00,37.0,35.4,30.12,NE,50,1.0,13.0,94,0.00,,---,4.16,11.00,VWS V14.00,2013-01-13 22:35:00,
2013-01-13 16:40:00,36.9,35.3,30.12,NNE,24,0.0,13.0,94,0.00,,---,4.16,11.00,VWS V14.00,2013-01-13 22:40:00,
2013-01-13 16:45:00,36.9,35.6,30.12,ESE,107,0.0,13.0,95,0.00,,---,4.16,11.00,VWS V14.00,2013-01-13 22:45:00,
2013-01-13 16:50:00,36.8,35.5,30.12,East,82,0.0,13.0,95,0.00,,---,4.16,9.00,VWS V14.00,2013-01-13 22:50:00,
2013-01-13 16:55:00,36.8,35.5,30.12,North,9,0.0,13.0,95,0.00,,---,4.16,7.00,VWS V14.00,2013-01-13 22:55:00,
2013-01-13 17:00:00,36.7,35.4,30.11,NNW,336,4.0,4.0,95,0.00,,---,4.16,9.00,VWS V14.00,2013-01-13 23:00:00,
2013-01-13 17:05:00,36.5,35.2,30.11,NNE,31,0.0,12.0,95,0.00,,---,4.16,5.00,VWS V14.00,2013-01-13 23:05:00,
2013-01-13 17:10:00,36.6,35.3,30.11,North,360,0.0,12.0,95,0.00,,---,4.16,5.00,VWS V14.00,2013-01-13 23:10:00,
2013-01-13 17:15:00,36.6,35.3,30.12,North,11,0.0,12.0,95,0.00,,---,4.16,0.00,VWS V14.00,2013-01-13 23:15:00,
2013-01-13 17:20:00,36.7,35.4,30.12,North,360,0.0,12.0,95,0.00,,---,4.16,0.00,VWS V14.00,2013-01-13 23:20:00,
2013-01-13 17:25:00,36.8,35.5,30.12,NNW,344,0.0,12.0,95,0.00,,---,4.16,0.00,VWS V14.00,2013-01-13 23:25:00,
2013-01-13 17:30:00,36.9,35.6,30.13,NNE,15,0.0,1.0,95,0.00,,---,4.16,0.00,VWS V14.00,2013-01-13 23:30:00,
2013-01-13 17:35:00,36.9,35.6,30.13,NNE,21,0.0,1.0,95,0.00,,---,4.16,0.00,VWS V14.00,2013-01-13 23:35:00,
2013-01-13 17:40:00,37.0,35.7,30.14,NE,46,0.0,1.0,95,0.00,,---,4.16,0.00,VWS V14.00,2013-01-13 23:40:00,
2013-01-13 17:45:00,37.1,35.8,30.14,North,355,0.0,5.0,95,0.00,,---,4.16,0.00,VWS V14.00,2013-01-13 23:45:00,
2013-01-13 17:50:00,37.3,36.3,30.13,North,350,0.0,5.0,96,0.00,,---,4.16,0.00,VWS V14.00,2013-01-13 23:50:00,
2013-01-13 17:55:00,37.3,36.0,30.13,North,360,0.0,9.0,95,0.00,,---,4.16,0.00,VWS V14.00,2013-01-13 23:55:00,
2013-01-13 18:00:00,37.3,36.0,30.14,NNE,13,0.0,4.0,95,0.00,,---,4.16,0.00,VWS V14.00,2013-01-14 00:00:00,
2013-01-13 18:05:00,37.3,35.7,30.14,NNE,32,0.0,4.0,94,0.00,,---,4.16,0.00,VWS V14.00,2013-01-14 00:05:00,
2013-01-13 18:10:00,37.3,35.7,30.14,ENE,60,0.0,7.0,94,0.00,,---,4.16,0.00,VWS V14.00,2013-01-14 00:10:00,
2013-01-13 18:15:00,37.3,35.7,30.14,NE,36,0.0,7.0,94,0.00,,---,4.16,0.00,VWS V14.00,2013-01-14 00:15:00,
2013-01-13 18:20:00,37.3,35.7,30.14,ENE,59,0.0,7.0,94,0.00,,---,4.16,0.00,VWS V14.00,2013-01-14 00:20:00,
2013-01-13 18:25:00,37.3,35.7,30.14,NE,47,3.0,7.0,94,0.00,,---,4.16,0.00,VWS V14.00,2013-01-14 00:25:00,
2013-01-13 18:30:00,37.3,35.7,30.14,NE,51,3.0,5.0,94,0.00,,---,4.16,0.00,VWS V14.00,2013-01-14 00:30:00,
2013-01-13 18:35:00,37.3,35.7,30.14,NNE,21,0.0,5.0,94,0.00,,---,4.16,0.00,VWS V14.00,2013-01-14 00:35:00,
2013-01-13 18:40:00,37.3,35.7,30.14,NNE,30,0.0,6.0,94,0.00,,---,4.16,0.00,VWS V14.00,2013-01-14 00:40:00,
2013-01-13 18:45:00,37.2,35.6,30.14,NE,36,0.0,6.0,94,0.00,,---,4.16,0.00,VWS V14.00,2013-01-14 00:45:00,
2013-01-13 18:50:00,37.3,35.5,30.14,NNE,26,0.0,11.0,93,0.00,,---,4.16,0.00,VWS V14.00,2013-01-14 00:50:00,
2013-01-13 18:55:00,37.2,35.4,30.14,NNE,19,0.0,15.0,93,0.00,,---,4.16,0.00,VWS V14.00,2013-01-14 00:55:00,
2013-01-13 19:00:00,37.2,35.4,30.15,NE,34,0.0,5.0,93,0.00,,---,4.16,0.00,VWS V14.00,2013-01-14 01:00:00,
2013-01-13 19:05:00,37.2,35.1,30.15,NE,40,0.0,10.0,92,0.00,,---,4.16,0.00,VWS V14.00,2013-01-14 01:05:00,
2013-01-13 19:10:00,37.2,35.1,30.16,ENE,57,0.0,10.0,92,0.00,,---,4.16,0.00,VWS V14.00,2013-01-14 01:10:00,
2013-01-13 19:15:00,37.2,35.1,30.16,NNE,19,0.0,10.0,92,0.00,,---,4.16,0.00,VWS V14.00,2013-01-14 01:15:00,
2013-01-13 19:20:00,37.2,35.1,30.16,NNE,28,0.0,10.0,92,0.00,,---,4.16,0.00,VWS V14.00,2013-01-14 01:20:00,
2013-01-13 19:25:00,37.1,35.0,30.16,NE,48,0.0,10.0,92,0.00,,---,4.16,0.00,VWS V14.00,2013-01-14 01:25:00,
2013-01-13 19:30:00,37.1,35.0,30.16,NE,44,3.0,6.0,92,0.00,,---,4.16,0.00,VWS V14.00,2013-01-14 01:30:00,
2013-01-13 19:35:00,37.1,35.0,30.17,NNE,28,0.0,9.0,92,0.00,,---,4.16,0.00,VWS V14.00,2013-01-14 01:35:00,
2013-01-13 19:40:00,37.0,34.3,30.16,NNE,20,0.0,14.0,90,0.00,,---,4.16,0.00,VWS V14.00,2013-01-14 01:40:00,
2013-01-13 19:45:00,36.9,34.2,30.17,NNW,329,0.0,14.0,90,0.00,,---,4.16,0.00,VWS V14.00,2013-01-14 01:45:00,
2013-01-13 19:50:00,36.8,34.2,30.17,ENE,64,2.0,14.0,90,0.00,,---,4.16,0.00,VWS V14.00,2013-01-14 01:50:00,
2013-01-13 19:55:00,36.7,33.8,30.17,NNE,16,0.0,14.0,89,0.00,,---,4.16,0.00,VWS V14.00,2013-01-14 01:55:00,
2013-01-13 20:00:00,36.6,33.7,30.17,North,5,0.0,0.0,89,0.00,,---,4.16,0.00,VWS V14.00,2013-01-14 02:00:00,
2013-01-13 20:05:00,36.6,33.7,30.18,NE,34,0.0,12.0,89,0.00,,---,4.16,0.00,VWS V14.00,2013-01-14 02:05:00,
2013-01-13 20:10:00,36.5,33.6,30.18,North,360,0.0,12.0,89,0.00,,---,4.16,0.00,VWS V14.00,2013-01-14 02:10:00,
2013-01-13 20:15:00,36.5,33.6,30.18,NNE,13,0.0,12.0,89,0.00,,---,4.16,0.00,VWS V14.00,2013-01-14 02:15:00,
2013-01-13 20:20:00,36.5,33.6,30.18,North,5,0.0,12.0,89,0.00,,---,4.16,0.00,VWS V14.00,2013-01-14 02:20:00,
2013-01-13 20:25:00,36.4,33.5,30.18,North,11,0.0,12.0,89,0.00,,---,4.16,0.00,VWS V14.00,2013-01-14 02:25:00,
2013-01-13 20:30:00,36.5,33.8,30.19,NE,44,2.0,3.0,90,0.00,,---,4.16,0.00,VWS V14.00,2013-01-14 02:30:00,
2013-01-13 20:35:00,36.4,33.5,30.19,North,349,0.0,3.0,89,0.00,,---,4.16,0.00,VWS V14.00,2013-01-14 02:35:00,
2013-01-13 20:40:00,36.3,33.4,30.18,NNE,22,0.0,6.0,89,0.00,,---,4.16,0.00,VWS V14.00,2013-01-14 02:40:00,
2013-01-13 20:45:00,36.2,33.0,30.18,NNE,28,0.0,12.0,88,0.00,,---,4.16,0.00,VWS V14.00,2013-01-14 02:45:00,
2013-01-13 20:50:00,36.1,32.9,30.19,NNE,33,0.0,12.0,88,0.00,,---,4.16,0.00,VWS V14.00,2013-01-14 02:50:00,
2013-01-13 20:55:00,35.9,32.7,30.19,NNE,27,2.0,12.0,88,0.00,,---,4.16,0.00,VWS V14.00,2013-01-14 02:55:00,
2013-01-13 21:00:00,35.7,32.5,30.19,North,5,0.0,5.0,88,0.00,,---,4.16,0.00,VWS V14.00,2013-01-14 03:00:00,
2013-01-13 21:05:00,35.7,32.8,30.19,North,360,0.0,5.0,89,0.00,,---,4.16,0.00,VWS V14.00,2013-01-14 03:05:00,
2013-01-13 21:10:00,35.7,32.8,30.19,NE,37,0.0,5.0,89,0.00,,---,4.16,0.00,VWS V14.00,2013-01-14 03:10:00,
2013-01-13 21:15:00,35.6,32.7,30.19,NNE,31,0.0,5.0,89,0.00,,---,4.16,0.00,VWS V14.00,2013-01-14 03:15:00,
2013-01-13 21:20:00,35.6,32.7,30.19,NNE,32,0.0,5.0,89,0.00,,---,4.16,0.00,VWS V14.00,2013-01-14 03:20:00,
2013-01-13 21:25:00,35.6,32.7,30.19,NNE,17,0.0,5.0,89,0.00,,---,4.16,0.00,VWS V14.00,2013-01-14 03:25:00,
2013-01-13 21:30:00,35.5,32.6,30.19,NNE,13,0.0,0.0,89,0.00,,---,4.16,0.00,VWS V14.00,2013-01-14 03:30:00,
2013-01-13 21:35:00,35.4,32.5,30.19,North,360,0.0,5.0,89,0.00,,---,4.16,0.00,VWS V14.00,2013-01-14 03:35:00,
2013-01-13 21:40:00,35.3,32.4,30.19,NNW,340,0.0,5.0,89,0.00,,---,4.16,0.00,VWS V14.00,2013-01-14 03:40:00,
2013-01-13 21:45:00,35.1,32.2,30.20,NNE,22,0.0,5.0,89,0.00,,---,4.16,0.00,VWS V14.00,2013-01-14 03:45:00,
2013-01-13 21:50:00,35.0,32.1,30.20,NNE,17,0.0,5.0,89,0.00,,---,4.16,0.00,VWS V14.00,2013-01-14 03:50:00,
2013-01-13 21:55:00,34.8,31.9,30.21,NE,35,0.0,5.0,89,0.00,,---,4.16,0.00,VWS V14.00,2013-01-14 03:55:00,
2013-01-13 22:00:00,34.7,31.8,30.21,NNE,22,0.0,0.0,89,0.00,,---,4.16,0.00,VWS V14.00,2013-01-14 04:00:00,
2013-01-13 22:05:00,34.6,31.7,30.21,NW,315,0.0,4.0,89,0.00,,---,4.16,0.00,VWS V14.00,2013-01-14 04:05:00,
2013-01-13 22:10:00,34.4,31.5,30.21,NNE,18,0.0,4.0,89,0.00,,---,4.16,0.00,VWS V14.00,2013-01-14 04:10:00,
2013-01-13 22:15:00,34.3,31.4,30.21,North,5,0.0,4.0,89,0.00,,---,4.16,0.00,VWS V14.00,2013-01-14 04:15:00,
2013-01-13 22:20:00,34.1,31.2,30.21,North,360,0.0,4.0,89,0.00,,---,4.16,0.00,VWS V14.00,2013-01-14 04:20:00,
2013-01-13 22:25:00,34.0,31.1,30.21,NNE,21,0.0,4.0,89,0.00,,---,4.16,0.00,VWS V14.00,2013-01-14 04:25:00,
2013-01-13 22:30:00,33.9,31.3,30.22,NNE,20,0.0,0.0,90,0.00,,---,4.16,0.00,VWS V14.00,2013-01-14 04:30:00,
2013-01-13 22:35:00,33.8,31.2,30.22,NNE,13,0.0,0.0,90,0.00,,---,4.16,0.00,VWS V14.00,2013-01-14 04:35:00,
2013-01-13 22:40:00,33.7,31.1,30.23,NNE,28,0.0,0.0,90,0.00,,---,4.16,0.00,VWS V14.00,2013-01-14 04:40:00,
2013-01-13 22:45:00,33.6,31.0,30.22,NNE,28,0.0,0.0,90,0.00,,---,4.16,0.00,VWS V14.00,2013-01-14 04:45:00,
2013-01-13 22:50:00,33.5,30.9,30.22,NE,37,0.0,0.0,90,0.00,,---,4.16,0.00,VWS V14.00,2013-01-14 04:50:00,
2013-01-13 22:55:00,33.4,31.1,30.22,NNE,31,0.0,0.0,91,0.00,,---,4.16,0.00,VWS V14.00,2013-01-14 04:55:00,
2013-01-13 23:00:00,33.3,31.0,30.23,North,5,0.0,0.0,91,0.00,,---,4.16,0.00,VWS V14.00,2013-01-14 05:00:00,
2013-01-13 23:01:00,33.3,31.0,30.23,North,5,0.0,0.0,91,0.00,,---,4.16,0.00,VWS V14.00,2013-01-14 05:01:00,
2013-01-13 23:02:00,33.3,31.0,30.23,North,5,0.0,0.0,91,0.00,,---,4.16,0.00,VWS V14.00,2013-01-14 05:02:00,
2013-01-13 23:07:00,33.2,30.9,30.23,North,5,0.0,0.0,91,0.00,,---,4.16,0.00,VWS V14.00,2013-01-14 05:07:00,
2013-01-13 23:12:00,33.2,30.9,30.23,NE,34,0.0,4.0,91,0.00,,---,4.16,0.00,VWS V14.00,2013-01-14 05:12:00,
2013-01-13 23:17:00,33.2,30.9,30.24,North,9,0.0,4.0,91,0.00,,---,4.16,0.00,VWS V14.00,2013-01-14 05:17:00,
2013-01-13 23:22:00,33.2,30.9,30.24,ENE,74,0.0,4.0,91,0.00,,---,4.16,0.00,VWS V14.00,2013-01-14 05:22:00,
2013-01-13 23:27:00,33.2,30.6,30.24,NE,34,0.0,0.0,90,0.00,,---,4.16,0.00,VWS V14.00,2013-01-14 05:27:00,
2013-01-13 23:30:00,33.2,30.6,30.24,North,355,0.0,4.0,90,0.00,,---,4.16,0.00,VWS V14.00,2013-01-14 05:30:00,
2013-01-13 23:32:00,33.2,30.3,30.24,NNW,338,4.0,5.0,89,0.00,,---,4.16,0.00,VWS V14.00,2013-01-14 05:32:00,
2013-01-13 23:37:00,33.3,30.4,30.24,NE,39,0.0,5.0,89,0.00,,---,4.16,0.00,VWS V14.00,2013-01-14 05:37:00,
2013-01-13 23:42:00,33.2,30.0,30.24,ENE,59,0.0,6.0,88,0.00,,---,4.16,0.00,VWS V14.00,2013-01-14 05:42:00,
2013-01-13 23:47:00,33.1,29.9,30.24,NE,36,0.0,6.0,88,0.00,,---,4.16,0.00,VWS V14.00,2013-01-14 05:47:00,
2013-01-13 23:52:00,33.0,30.1,30.24,NNW,345,0.0,6.0,89,0.00,,---,4.16,0.00,VWS V14.00,2013-01-14 05:52:00,
2013-01-13 23:57:00,33.0,30.1,30.24,North,5,0.0,0.0,89,0.00,,---,0.00,0.00,VWS V14.00,2013-01-14 05:57:00,